User: anonymous   Login
Location: Unspecified
(0.0000°N, 0.0000°E)
Time: 02:56:06
(UTC+00:00)
Language:

FALCON 9 R/B - Orbit

View from above orbital plane
View from above orbital plane
View from above satellite
View from above satellite

Ground track
Ground track

The orbit data is extracted from the following two-line orbital elements,

1 37253U 10066K   16035.84315620 +.00003665 +00000-0 +39448-3 0  9998
2 37253 034.5237 011.7878 4292822 206.4272 123.2604 06.86125963126160
Epoch (UTC): 04 February 2016 20:14:08
Eccentricity: 0.4292822
inclination: 34.5237°
perigee height: 298 km
apogee height: 10342 km
right ascension of ascending node: 11.7878°
argument of perigee: 206.4272°
revolutions per day: 6.86125963
mean anomaly at epoch: 123.2604°
orbit number at epoch: 12616

The dashed part of the orbit path shows where the satellite is in the earth's shadow,  

DLR